STARLINK-6178, 56387

Orbit data source: Space-Track

STARLINK-6178, 56387 is a payload satellite owned by SpaceX/Seattle (US) in LEO that was launched on Thu, 04 May 2023 UTC via an FALCON 9 launch vehicle from the Air Force Eastern Test Range (AFETR). Payload-class satellites include a variety of spacecraft equipped with specific instruments for various scientific and technological missions. These include communications satellites like Starlink; space stations such as the ISS; scientific satellites like the Hubble; Earth observation satellites from companies like Planet Labs, Umbra, and HawkEye 360; GPS; miniature CubeSats for education and research; and military/defense satellites.

Loading next visibility...
Identifier
56387, 2023-061P
Orbit
LEO
Country
Flag of USUS
Related business
Manufacturer
SpaceX/Seattle
Mission
Operational Commercial Communications
Bus & Motor
STARLINK, Unknown motor
Mass
305 kg wet, ~290 kg dry
Launch date (UTC)
2023-05-04 (3 years ago)
Launch vehicle
FALCON 9
Launch site
Air Force Eastern Test Range (AFETR)
Object type
Payload
Rocket body
Debris
Shape & HBR
Box + 1 Pan, 10.1 m
Radar Cross Section
11.087 m², Large (>1 m²)

Expand to show TLE details & history
Last TLE update: 3 days ago

TLE from 3 days ago
0 STARLINK-6178
1 56387U 23061P   26170.83258829 -.00000113  00000-0  54305-5 0  9990
2 56387  43.0037 340.8313 0001117 269.0415  91.0309 15.27576241172379
Epoch: 2026-06-19T19:58Z
TLE epoch observation values (Epoch: 2026-06-19T19:58:55.628Z)
Latitude
0.00001°
Longitude
133.04363°
Altitude
482.85 km
Speed
7.626 km/s
True Right ascension
22h 43m 19s
True Declination
0° 00' 00"
Sunlit
Object was in daylight at epoch
Visualization orbit readout
Latitude
Unknown
Longitude
Unknown
Altitude
Unknown
Speed
Unknown
Apparent Right ascension
Unknown
Apparent Declination
Unknown
Sunlit
N/A
Visualization observer readout
Local Sidereal Time
23:27:11
Azimuth
Unknown
Elevation
Unknown
Doppler factor
Unknown
Orbital elements
Apogee altitude
485.772 km
Perigee altitude
484.238 km
Semi-major axis
6,863.142 km
Eccentricity
0.00011
Inclination
43.0037°
RAAN
340.8313°
Arg. of periapsis
269.0415°
True anomaly
91.0437°
Mean anomaly
91.0309°
Eccentric anomaly
91.0373°
Mean motion
3.81732 °/min
Orbital period
94.31 mins
BSTAR
0.0000054305
Loading maneuver chart data...
Computing Atmospheric mass density...
Loading historical data...
Loading historical data...
Loading historical data...
Loading historical data...
Loading historical data...
Loading historical data...
Loading historical data...

Documentation

Showing up to 5 results
|